Flag for Germany Weather past 2 weeks in Siegburg, North Rhine-Westphalia, Germany

Now
69 °F

Fog.


Feels Like: 69 °F
Forecast: 55 / 70 °F
Wind: 5 mph from East

Location: Bonn-Hangelar

Current Time: Aug 31, 2015 at 7:00:51 AM

Latest Report: Aug 31, 2015 at 5:00 AM


Visibility: 1 mi

Pressure: 29.90 "Hg

Humidity: 96%

Dew point: 67 °F

Location of SiegburgLocation

Historic Weather in Siegburg — Graph

°F

Siegburg temperature yesterday

Maximum temperature yesterday: 87 °F (at 4:00 PM)
Minimum temperature yesterday: 63 °F (at 7:00 AM)
Average temperature yesterday: 75 °F

Past Weeks' High & Low Weather Summary

 TemperatureHumidityPressure
High87 °F (Aug 30, 4:00 PM)100% (Aug 16, 5:00 AM)30.24 "Hg (Aug 16, 5:00 AM)
Low49 °F (Aug 19, 6:00 AM)33% (Aug 23, 3:00 PM)29.50 "Hg (Aug 24, 3:00 PM)
Average64 °F78%29.98 "Hg
* Reported Aug 16 5:00 AM — Aug 31 5:00 AM, Siegburg, Weather by CustomWeather, © 2015

Note: Actual official high and low records may vary slightly from our data, if they occured in-between our weather recording intervals... More about our weather records

Advertising

Siegburg weather history for previous 24 hours

 ConditionsComfort  
Time TempWeatherWind HumidityBarometerVisibility
5:00 AM
Mon, Aug 31
69 °FFog.5 mph96%29.90 "Hg1 mi
4:00 AM70 °FFog.5 mph95%29.93 "Hg2 mi
3:00 AM71 °FFog.6 mph94%29.93 "Hg2 mi
2:00 AM72 °FOvercast.3 mph88%29.95 "Hg7 mi
1:00 AM74 °FOvercast.2 mph82%29.95 "Hg17 mi
11:00 PM
Sun, Aug 30
74 °FPassing clouds.3 mph86%29.94 "Hg15 mi
10:00 PM75 °FOvercast.3 mph82%29.97 "Hg16 mi
9:00 PM78 °FOvercast.1 mph74%29.97 "Hg19 mi
8:00 PM82 °FOvercast.1 mph65%29.96 "Hg25 mi
7:00 PM83 °FOvercast.3 mph62%29.97 "Hg25 mi
6:00 PM86 °FOvercast.5 mph54%29.96 "Hg19 mi
5:00 PM87 °FOvercast.6 mph53%29.96 "Hg19 mi
4:00 PM87 °FOvercast.6 mph51%29.96 "Hg9 mi
3:00 PM87 °FPartly sunny.7 mph52%29.97 "Hg7 mi
2:00 PM87 °FPartly sunny.7 mph53%29.97 "Hg6 mi
1:00 PM86 °FSunny.7 mph58%29.98 "Hg9 mi
12:00 PM84 °FSunny.5 mph62%29.98 "Hg19 mi
11:00 AM76 °FPassing clouds.3 mph78%30.00 "Hg12 mi
10:00 AM71 °FSunny.2 mph87%30.02 "Hg7 mi
9:00 AM67 °FFog.3 mph94%30.03 "Hg4 mi
8:00 AM64 °FFog.3 mph100%30.02 "Hg2 mi
7:00 AM63 °FFog.2 mph99%30.03 "Hg2 mi
Weather by CustomWeather, © 2015

See weather overviewHow to use our weather pages